Theta_e
351 350 349 350 350 349 349 348 346 346 347 347 346 346 348 351 350 350 351 352 348 343 342 342 343 345 344 342 337 323 318 328 329 323 330 340 341 343 342 335 339 344
351 351 349 349 349 348 349 348 346 346 347 347 348 348 350 352 350 351 351 351 347 343 343 343 344 346 345 342 336 324 319 328 329 319 323 336 340 342 340 335 338 343
350 351 350 349 348 346 347 347 347 347 347 347 348 349 351 351 349 350 352 353 350 345 344 343 345 347 344 341 337 326 320 323 323 316 318 330 339 343 338 331 333 339
350 350 350 349 347 346 345 345 347 347 347 347 347 348 349 349 350 350 351 352 350 347 345 344 346 347 343 342 338 326 321 323 321 317 316 320 332 341 337 328 325 330
349 350 350 348 347 347 344 343 346 347 347 348 348 347 348 350 353 352 350 350 347 345 345 344 346 347 343 341 339 331 327 325 320 318 317 316 322 327 327 323 323 325
348 349 349 348 346 345 346 344 344 346 347 347 348 348 348 350 352 352 353 352 349 347 346 345 347 347 344 341 338 333 328 325 322 318 315 314 316 319 320 323 326 329
348 348 348 347 346 344 345 345 343 345 346 345 347 347 349 351 349 350 354 353 352 353 351 347 348 347 344 342 339 331 323 322 321 318 316 316 316 317 324 331 335 337
347 347 348 347 347 345 345 345 343 344 345 345 346 346 349 352 350 350 353 352 352 355 353 348 348 348 344 341 340 333 322 320 321 319 316 316 319 323 328 336 341 340
346 346 347 347 347 347 346 344 343 343 344 345 347 347 348 351 351 351 351 351 353 353 351 347 347 348 344 340 341 336 325 320 319 321 320 322 332 336 329 332 339 338
346 345 346 347 347 347 347 346 343 342 344 345 347 347 348 350 351 351 351 353 353 351 347 347 347 348 344 340 341 338 328 321 319 324 327 326 329 329 322 323 334 338
347 346 345 346 348 347 347 346 344 342 343 344 346 347 348 350 350 350 351 353 353 349 345 346 348 347 345 340 339 339 331 322 320 323 323 320 316 318 320 324 333 339
347 347 346 346 347 348 348 346 344 343 342 343 345 347 348 350 350 350 352 353 353 349 344 345 347 347 346 341 338 340 334 323 321 321 318 315 313 314 322 330 336 340
348 347 347 346 347 348 347 346 345 343 343 344 345 346 349 350 350 351 352 353 354 350 344 344 347 347 347 342 338 340 336 326 321 321 318 315 313 314 320 328 334 338
349 348 347 346 348 348 347 346 347 344 343 346 346 346 349 351 353 353 353 355 355 350 344 344 346 347 347 343 339 339 337 329 322 320 320 315 312 315 317 322 333 338
351 348 348 347 347 348 347 347 348 346 343 346 349 349 349 351 354 356 355 356 355 350 345 345 345 347 348 344 340 340 339 332 324 321 321 316 313 313 313 323 338 341
353 349 349 349 349 348 346 346 349 349 345 345 349 351 351 351 353 356 356 355 353 348 344 345 345 346 348 345 341 340 340 335 326 321 321 317 314 312 312 319 329 332
354 353 352 350 350 349 347 346 347 349 348 346 347 349 352 351 349 350 352 350 348 344 342 344 346 346 347 347 343 341 341 338 330 322 321 319 314 312 313 314 317 319
351 353 355 355 352 349 349 348 346 347 349 350 349 346 346 346 343 343 344 342 340 339 340 344 346 345 347 347 346 344 342 340 334 325 322 321 316 312 312 313 314 317
353 352 355 358 359 354 349 346 345 347 349 349 349 347 344 342 342 341 338 335 335 335 338 345 346 345 347 347 347 347 343 341 338 331 324 321 318 313 312 312 314 318
354 351 351 354 361 363 359 350 343 345 349 349 348 348 347 344 341 339 335 333 334 334 339 345 346 345 348 347 347 348 345 342 340 335 328 322 319 315 311 312 314 317
352 354 353 350 352 357 360 359 353 345 345 348 348 349 350 347 341 339 335 334 333 334 339 346 346 345 347 348 348 348 346 344 341 338 333 325 320 316 311 312 314 316
354 357 356 351 349 349 350 357 361 355 346 344 346 351 352 347 342 339 337 335 333 334 341 347 346 346 347 347 348 348 347 346 342 340 337 328 321 318 312 312 313 316
355 355 352 349 351 351 347 348 356 360 357 350 347 351 352 346 342 341 339 337 335 334 341 347 346 346 347 347 348 348 347 347 343 342 340 331 323 319 313 312 313 316
353 352 351 349 348 350 349 345 346 354 360 359 354 351 350 345 342 343 341 338 336 335 340 345 346 347 347 347 348 348 348 348 345 343 342 335 327 321 314 313 313 315
351 350 351 350 349 350 348 344 342 346 353 358 357 352 348 346 344 345 345 343 339 337 340 343 345 347 346 346 348 348 348 348 346 344 343 339 331 323 316 313 313 315
350 349 350 351 351 352 349 346 347 348 349 355 357 353 348 346 345 348 351 350 344 340 340 341 343 346 346 346 348 348 348 349 348 345 344 341 335 326 318 314 314 315
Wind_Speed
16 17 17 17 15 14 13 13 13 14 13 11 10 10 9 10 11 8 5 7 7 3 2 2 3 6 10 12 10 6 6 6 7 8 9 9 8 9 10 9 11 12
17 16 16 16 16 16 16 14 14 14 13 13 10 10 11 12 11 9 6 7 7 4 3 3 3 6 9 10 9 7 7 7 5 5 8 10 9 8 8 9 11 13
18 17 17 15 16 16 17 15 14 14 14 14 11 9 10 9 9 10 6 4 5 5 3 3 3 5 7 10 9 7 6 7 6 6 7 9 9 7 7 7 8 10
19 18 18 17 16 16 16 15 15 14 14 14 12 11 9 8 12 14 9 8 8 7 3 1 2 4 8 10 8 5 6 8 7 6 6 8 8 6 6 7 7 7
20 19 18 18 17 17 16 16 15 15 14 13 12 13 11 10 12 10 9 9 8 6 3 1 1 3 7 9 8 6 7 8 7 5 6 7 6 5 5 6 8 10
21 21 20 19 18 17 16 16 17 16 15 13 12 12 13 13 11 9 8 7 4 4 5 3 1 4 7 9 8 6 5 6 6 5 5 6 6 7 7 8 10 12
21 21 21 20 19 19 17 16 16 17 17 15 14 13 13 13 12 11 10 7 5 5 6 5 1 3 6 7 7 5 3 4 4 4 5 5 6 9 10 10 11 11
21 22 22 22 20 19 18 18 16 16 17 16 15 15 13 13 13 12 11 9 9 10 9 6 2 1 3 6 6 5 3 3 3 3 3 4 8 10 9 9 9 9
21 22 23 23 21 20 19 19 17 16 17 17 17 16 14 14 13 13 13 12 12 13 11 7 3 1 2 5 6 5 3 3 3 2 3 5 7 7 5 6 7 7
22 22 23 22 21 21 19 19 18 17 17 17 17 16 16 15 13 13 15 14 14 14 10 6 4 2 2 4 5 5 4 3 3 3 3 3 4 2 3 7 8 7
23 22 22 22 21 21 20 19 19 18 17 18 17 15 16 16 14 15 16 14 13 13 9 6 5 2 1 2 3 5 4 3 3 2 1 1 2 2 3 7 9 8
25 22 21 22 23 22 20 19 20 19 17 19 20 17 15 16 16 17 16 14 13 13 10 7 5 3 1 2 2 3 3 2 2 1 0 1 2 2 4 6 7 6
27 25 23 23 23 23 21 19 19 20 17 17 21 22 17 15 17 18 14 12 14 16 12 7 5 4 2 2 2 2 3 2 1 1 0 1 1 2 4 4 4 3
31 26 25 26 25 23 22 20 19 21 18 15 19 25 23 16 15 16 13 12 16 18 13 7 5 5 4 2 2 1 2 1 0 1 1 1 2 2 2 4 5 3
32 29 27 29 29 26 25 22 18 19 21 18 17 23 26 22 18 16 14 16 19 19 14 8 7 6 5 3 2 1 1 0 1 2 1 1 2 2 3 5 5 0
31 30 29 30 31 29 29 26 20 18 22 23 20 20 22 24 22 18 16 19 21 18 14 10 8 8 6 5 3 2 1 1 1 2 2 2 2 2 3 4 5 4
30 30 29 30 31 29 29 30 26 21 21 23 24 22 20 22 23 21 21 23 22 18 14 11 10 9 8 6 4 2 2 1 2 2 2 2 2 2 3 3 3 2
32 32 28 26 29 30 28 29 30 27 25 25 26 25 22 21 21 22 23 24 22 18 14 13 12 10 9 7 4 3 2 2 3 3 3 3 3 3 3 2 1 1
32 34 29 23 25 28 29 29 30 30 29 28 26 23 22 22 22 22 22 21 21 18 16 15 14 11 10 8 5 3 3 3 4 3 3 4 3 3 3 2 1 1
28 30 30 26 24 24 26 27 29 30 30 29 26 22 22 23 22 21 21 21 21 19 17 17 15 12 11 9 7 5 3 4 5 3 3 4 4 4 4 2 2 3
26 24 26 27 26 23 22 23 26 29 29 27 25 24 24 24 22 21 21 21 21 19 19 19 16 13 12 10 8 7 5 4 5 4 4 4 4 5 4 3 3 4
25 22 22 24 25 23 23 22 23 26 27 27 26 26 25 23 22 22 22 22 21 20 20 20 17 14 13 11 10 8 6 5 5 5 5 4 4 6 5 4 5 5
26 23 22 24 23 21 22 22 21 22 24 26 28 28 26 24 23 23 22 21 21 20 21 21 18 15 14 13 11 10 8 6 5 4 5 5 6 7 6 6 6 5
27 23 22 24 23 20 21 23 22 21 23 25 27 27 25 24 24 24 23 21 20 21 22 22 19 16 15 15 13 12 11 8 6 5 5 5 6 7 7 7 7 6
25 23 21 21 20 18 20 22 22 21 21 23 25 25 24 24 24 22 20 20 20 21 22 23 21 18 16 16 15 14 13 11 8 6 6 6 7 8 8 9 7 6
24 22 18 17 17 16 17 20 20 20 20 21 23 23 22 23 22 18 17 18 19 20 22 23 23 20 17 17 17 16 15 13 10 8 7 7 7 8 10 10 8 8
Wind_Direction
198 200 198 195 195 193 193 198 197 196 199 193 190 191 186 181 170 165 194 219 234 271 1 338 349 5 9 13 13 14 28 51 47 45 75 76 57 53 28 28 73 73
198 203 204 203 205 193 187 198 200 201 202 194 193 188 185 195 186 185 228 247 244 266 347 357 15 19 14 13 13 19 37 61 65 47 73 77 62 56 33 38 80 83
200 204 205 204 209 200 192 199 202 205 203 193 195 187 186 208 201 188 193 193 221 253 317 357 29 25 13 17 18 21 38 54 61 53 67 78 73 58 29 41 79 88
203 205 207 205 209 209 204 204 204 207 203 195 199 198 197 199 186 190 189 176 212 253 298 7 29 24 19 23 19 22 47 49 47 53 60 71 82 73 33 40 60 74
207 206 208 208 209 210 209 208 207 208 204 199 197 198 201 187 176 198 212 195 215 258 280 300 44 35 24 24 19 20 37 34 32 47 58 58 68 71 49 49 56 62
210 208 208 210 211 208 208 209 209 209 206 202 198 196 199 197 190 201 206 201 227 260 268 284 30 39 22 25 25 22 20 14 17 37 56 54 55 62 57 53 58 66
210 210 208 210 212 210 210 211 210 209 208 206 205 201 198 201 202 196 187 181 182 200 235 266 303 33 30 35 32 24 7 4 20 38 52 58 59 59 57 53 56 64
213 212 209 208 210 211 212 214 214 212 210 208 207 204 201 200 196 193 196 188 175 190 218 242 249 21 31 35 34 25 12 12 22 43 60 64 58 50 53 58 58 69
217 216 211 206 208 211 212 215 217 217 213 209 207 204 205 205 196 195 205 198 186 202 223 237 232 216 20 31 36 25 16 20 22 52 68 60 60 48 49 71 68 74
219 220 213 207 208 211 213 215 217 218 216 212 207 203 204 204 198 202 210 201 196 213 230 233 223 205 36 25 34 30 23 21 24 60 80 67 84 70 42 75 79 72
220 221 216 210 210 211 214 216 217 218 218 213 206 204 206 204 199 205 214 210 210 227 232 218 220 214 58 6 26 38 33 27 32 63 108 97 104 90 57 71 76 73
221 222 217 213 212 213 214 216 217 218 222 216 208 204 207 207 201 205 218 218 217 231 230 209 215 220 214 328 10 42 36 39 42 26 98 117 115 95 77 71 68 70
220 220 219 215 212 212 212 217 219 219 223 221 211 206 203 202 200 204 216 218 214 225 228 207 208 221 225 292 332 39 43 50 35 337 40 147 134 96 90 93 87 90
218 219 223 221 217 212 209 214 221 220 220 220 210 206 203 197 193 196 204 209 213 225 229 211 213 227 229 259 289 7 51 73 270 250 226 204 143 117 113 95 70 43
221 223 228 225 221 217 209 210 220 220 218 219 212 206 204 203 196 189 197 212 220 228 231 221 223 229 229 246 273 321 5 184 229 230 231 214 165 143 123 106 93 51
223 225 230 225 221 221 216 212 216 216 215 220 221 215 211 212 209 200 204 221 228 231 232 229 229 227 228 238 252 288 298 265 230 235 233 213 193 157 134 142 152 204
222 223 227 225 220 221 219 214 214 215 214 219 226 228 224 222 222 215 217 227 233 235 234 231 229 227 224 227 237 272 292 283 254 246 237 229 210 171 167 186 185 220
221 221 224 223 219 221 220 213 212 215 216 218 224 230 231 230 228 222 222 230 235 236 233 230 228 224 220 221 230 256 284 284 267 254 240 238 224 201 201 206 223 314
218 220 221 218 215 218 220 215 211 212 215 219 223 226 227 228 227 224 226 233 235 232 230 229 226 219 216 218 222 240 273 279 271 269 252 241 229 219 223 224 252 94
219 222 223 218 210 210 213 213 212 212 214 218 222 223 223 225 226 226 228 231 232 229 226 227 225 217 216 216 214 228 251 265 275 285 264 251 236 225 226 218 222 159
225 225 222 219 217 217 214 208 208 213 215 217 219 221 222 224 226 227 227 228 229 226 223 226 225 217 216 217 214 222 235 249 272 285 275 265 239 226 231 214 210 182
219 215 213 214 216 221 222 215 208 209 215 218 219 218 220 223 227 228 227 226 226 224 221 225 225 217 217 220 217 221 230 239 258 275 275 267 238 231 231 213 212 186
212 210 212 211 212 215 217 219 217 212 214 216 215 213 215 220 225 226 226 225 224 222 221 224 225 219 217 222 222 224 230 235 244 261 266 257 239 236 228 216 222 203
219 219 214 211 214 216 210 210 217 221 220 215 210 209 212 218 221 223 224 224 222 221 222 225 226 222 219 222 224 225 229 234 235 241 254 249 237 235 227 218 222 215
219 216 212 207 209 212 208 208 215 221 224 219 211 208 210 215 219 220 222 223 221 220 222 225 227 226 223 224 225 226 229 233 230 229 243 246 236 233 226 217 218 215
213 209 205 195 194 201 207 208 208 212 218 221 219 213 210 213 215 214 216 221 222 221 220 222 226 227 226 226 227 228 229 230 228 229 238 242 236 233 227 218 215 211